Weather History for Newton, IA

Change the Weather History Date:

Friday, November 2, 2012

  Actual Average Record
Temperature  
Mean Temperature 39 °F -  
Max Temperature 46 °F 52 °F 75 °F (2005)
Min Temperature 32 °F 35 °F 12 °F (1991)
Degree Days  
Heating Degree Days 26    
Moisture  
Dew Point 29 °F    
Average Humidity 67    
Maximum Humidity 81    
Minimum Humidity 50    
Precipitation  
Precipitation 0.00 in - - ()
Sea Level Pressure  
Sea Level Pressure 30.05 in    
Wind  
Wind Speed 9 mph (ENE)    
Max Wind Speed 15 mph    
Max Gust Speed 18 mph    
Visibility 10 miles    
Events      
Averages and records for this station are not official NWS values.
T = Trace of Precipitation, MM = Missing Value Source: NWS Daily Summary

Daily Weather History Graph

Daily Weather History Graph

Search for Another Location

Airport:

Trip Planner

Search our weather history database for the weather conditions in past years. The results will help you decide how hot, cold, wet, or windy it might be!

Date:

Astronomy

Nov. 02, 2012 Rise Set
Actual Time 7:45 AM CDT 6:04 PM CDT
Civil Twilight 7:16 AM CDT 6:33 PM CDT
Nautical Twilight 6:44 AM CDT 7:06 PM CDT
Astronomical Twilight 6:11 AM CDT 7:38 PM CDT
Moon 8:50 PM CDT (11/2) 11:08 AM CDT (11/2)
Length of Visible Light 11h 16m
Length of Day
10h 18m
Waning Gibbous, 87% of the Moon is Illuminated
Nov 2
Waning Gibbous
Nov 6
Last Quarter
Nov 13
New
Nov 20
First Quarter
Nov 28
Full

Hourly Weather History & Observations

Time (CDT) Temp. Windchill Dew Point Humidity Pressure Visibility Wind Dir Wind Speed Gust Speed Precip Events Conditions
12:15 AM 35.6 °F 29.2 °F 28.4 °F 75% 30.01 in 10.0 mi NNE 8.1 mph - N/A   Clear
12:35 AM 37.4 °F 30.8 °F 28.4 °F 70% 30.01 in 10.0 mi NNE 9.2 mph - N/A   Clear
12:55 AM 35.6 °F 28.0 °F 28.4 °F 75% 30.01 in 10.0 mi NNE 10.4 mph - N/A   Clear
1:15 AM 35.6 °F 28.6 °F 28.4 °F 75% 30.01 in 10.0 mi NNE 9.2 mph - N/A   Clear
1:35 AM 35.6 °F 29.2 °F 28.4 °F 75% 30.02 in 10.0 mi NNE 8.1 mph - N/A   Clear
1:55 AM 33.8 °F 26.4 °F 28.4 °F 81% 30.02 in 10.0 mi NNE 9.2 mph - N/A   Clear
2:15 AM 35.6 °F 29.2 °F 28.4 °F 75% 30.02 in 10.0 mi NNE 8.1 mph - N/A   Clear
2:35 AM 33.8 °F 28.6 °F 28.4 °F 81% 30.03 in 10.0 mi North 5.8 mph 11.5 mph N/A   Clear
2:55 AM 33.8 °F 28.6 °F 28.4 °F 81% 30.04 in 10.0 mi North 5.8 mph - N/A   Clear
3:15 AM 33.8 °F 29.6 °F 28.4 °F 81% 30.04 in 10.0 mi NNE 4.6 mph - N/A   Clear
3:35 AM 33.8 °F 27.7 °F 26.6 °F 75% 30.03 in 10.0 mi NNE 6.9 mph - N/A   Clear
3:55 AM 33.8 °F 28.6 °F 26.6 °F 75% 30.03 in 10.0 mi NNE 5.8 mph - N/A   Clear
4:15 AM 33.8 °F 27.0 °F 26.6 °F 75% 30.04 in 10.0 mi NNE 8.1 mph - N/A   Clear
4:35 AM 33.8 °F 27.7 °F 26.6 °F 75% 30.04 in 10.0 mi NE 6.9 mph - N/A   Clear
4:55 AM 32.0 °F 27.5 °F 26.6 °F 80% 30.03 in 10.0 mi NE 4.6 mph - N/A   Clear
5:15 AM 32.0 °F 27.5 °F 26.6 °F 80% 30.03 in 10.0 mi NE 4.6 mph - N/A   Clear
5:35 AM 33.8 °F 27.7 °F 26.6 °F 75% 30.03 in 10.0 mi ENE 6.9 mph - N/A   Clear
5:55 AM 33.8 °F 27.7 °F 26.6 °F 75% 30.04 in 10.0 mi ENE 6.9 mph - N/A   Clear
6:15 AM 33.8 °F 28.6 °F 26.6 °F 75% 30.03 in 10.0 mi ENE 5.8 mph - N/A   Clear
6:35 AM 33.8 °F 28.6 °F 26.6 °F 75% 30.04 in 10.0 mi ENE 5.8 mph - N/A   Clear
6:55 AM 32.0 °F 25.6 °F 26.6 °F 80% 30.04 in 10.0 mi East 6.9 mph - N/A   Scattered Clouds
7:15 AM 33.8 °F 27.7 °F 26.6 °F 75% 30.05 in 10.0 mi East 6.9 mph - N/A   Overcast
7:35 AM 33.8 °F 28.6 °F 26.6 °F 75% 30.06 in 10.0 mi ENE 5.8 mph - N/A   Overcast
7:55 AM 33.8 °F 27.7 °F 26.6 °F 75% 30.06 in 10.0 mi ENE 6.9 mph - N/A   Overcast
8:15 AM 33.8 °F 27.0 °F 26.6 °F 75% 30.06 in 10.0 mi ENE 8.1 mph - N/A   Partly Cloudy
8:35 AM 33.8 °F 27.0 °F 26.6 °F 75% 30.08 in 10.0 mi ENE 8.1 mph - N/A   Clear
8:55 AM 33.8 °F 26.4 °F 28.4 °F 81% 30.09 in 10.0 mi ENE 9.2 mph - N/A   Clear
9:15 AM 35.6 °F 27.5 °F 28.4 °F 75% 30.09 in 10.0 mi East 11.5 mph - N/A   Clear
9:35 AM 37.4 °F 29.3 °F 28.4 °F 70% 30.09 in 10.0 mi East 12.7 mph - N/A   Clear
9:55 AM 37.4 °F 29.8 °F 30.2 °F 75% 30.09 in 10.0 mi East 11.5 mph - N/A   Clear
10:15 AM 39.2 °F 32.0 °F 30.2 °F 70% 30.09 in 10.0 mi ESE 11.5 mph - N/A   Clear
10:35 AM 41.0 °F 33.9 °F 30.2 °F 65% 30.08 in 10.0 mi ESE 12.7 mph - N/A   Clear
10:55 AM 41.0 °F 34.7 °F 30.2 °F 65% 30.08 in 10.0 mi SE 10.4 mph 17.3 mph N/A   Clear
11:15 AM 41.0 °F 33.9 °F 30.2 °F 65% 30.09 in 10.0 mi ESE 12.7 mph - N/A   Clear
11:35 AM 41.0 °F 34.7 °F 30.2 °F 65% 30.09 in 10.0 mi ESE 10.4 mph 17.3 mph N/A   Clear
11:55 AM 42.8 °F 35.8 °F 30.2 °F 61% 30.08 in 10.0 mi ESE 13.8 mph - N/A   Clear
12:15 PM 42.8 °F 37.5 °F 30.2 °F 61% 30.07 in 10.0 mi ESE 9.2 mph 16.1 mph N/A   Clear
12:35 PM 44.6 °F 38.4 °F 30.2 °F 57% 30.06 in 10.0 mi ESE 12.7 mph 18.4 mph N/A   Clear
12:55 PM 44.6 °F 38.8 °F 30.2 °F 57% 30.06 in 10.0 mi ESE 11.5 mph - N/A   Clear
1:15 PM 44.6 °F 38.8 °F 30.2 °F 57% 30.05 in 10.0 mi ESE 11.5 mph 17.3 mph N/A   Clear
1:35 PM 44.6 °F 37.8 °F 30.2 °F 57% 30.05 in 10.0 mi ESE 15.0 mph - N/A   Clear
1:55 PM 44.6 °F 38.1 °F 30.2 °F 57% 30.05 in 10.0 mi ESE 13.8 mph - N/A   Clear
2:15 PM 44.6 °F 38.4 °F 30.2 °F 57% 30.04 in 10.0 mi ESE 12.7 mph - N/A   Clear
2:35 PM 46.4 °F 40.4 °F 28.4 °F 50% 30.03 in 10.0 mi ESE 13.8 mph - N/A   Clear
2:55 PM 46.4 °F 41.1 °F 30.2 °F 53% 30.03 in 10.0 mi ESE 11.5 mph - N/A   Clear
3:15 PM 46.4 °F 41.1 °F 28.4 °F 50% 30.04 in 10.0 mi East 11.5 mph 17.3 mph N/A   Clear
3:35 PM 46.4 °F 41.9 °F 30.2 °F 53% 30.04 in 10.0 mi ESE 9.2 mph 15.0 mph N/A   Clear
3:55 PM 46.4 °F 41.5 °F 28.4 °F 50% 30.05 in 10.0 mi East 10.4 mph 17.3 mph N/A   Clear
4:15 PM 46.4 °F 40.7 °F 28.4 °F 50% 30.03 in 10.0 mi East 12.7 mph - N/A   Clear
4:35 PM 46.4 °F 41.1 °F 28.4 °F 50% 30.04 in 10.0 mi ESE 11.5 mph - N/A   Clear
4:55 PM 44.6 °F 37.8 °F 28.4 °F 53% 30.02 in 10.0 mi East 15.0 mph - N/A   Clear
5:15 PM 44.6 °F 40.2 °F 28.4 °F 53% 30.05 in 10.0 mi ESE 8.1 mph 15.0 mph N/A   Clear
5:35 PM 44.6 °F 39.2 °F 30.2 °F 57% 30.03 in 10.0 mi East 10.4 mph - N/A   Clear
5:55 PM 44.6 °F 38.8 °F 30.2 °F 57% 30.03 in 9.0 mi East 11.5 mph - N/A   Clear
6:15 PM 42.8 °F 37.0 °F 30.2 °F 61% 30.03 in 10.0 mi East 10.4 mph - N/A   Clear
6:35 PM 42.8 °F 37.5 °F 30.2 °F 61% 30.03 in 10.0 mi East 9.2 mph - N/A   Clear
6:55 PM 42.8 °F 37.0 °F 30.2 °F 61% 30.04 in 10.0 mi East 10.4 mph - N/A   Clear
7:15 PM 42.8 °F 37.5 °F 30.2 °F 61% 30.04 in 10.0 mi East 9.2 mph - N/A   Clear
7:35 PM 42.8 °F 38.0 °F 30.2 °F 61% 30.04 in 10.0 mi East 8.1 mph - N/A   Clear
7:55 PM 41.0 °F 35.2 °F 32.0 °F 70% 30.04 in 10.0 mi ENE 9.2 mph - N/A   Clear
8:15 PM 42.8 °F 38.0 °F 30.2 °F 61% 30.05 in 10.0 mi ENE 8.1 mph - N/A   Clear
8:35 PM 41.0 °F 35.2 °F 30.2 °F 65% 30.05 in 10.0 mi East 9.2 mph - N/A   Clear
8:55 PM 41.0 °F 35.2 °F 30.2 °F 65% 30.06 in 10.0 mi East 9.2 mph - N/A   Clear
9:15 PM 41.0 °F 35.8 °F 30.2 °F 65% 30.07 in 10.0 mi East 8.1 mph - N/A   Clear
9:35 PM 41.0 °F 35.8 °F 30.2 °F 65% 30.08 in 10.0 mi East 8.1 mph - N/A   Clear
9:55 PM 39.2 °F 33.0 °F 30.2 °F 70% 30.08 in 10.0 mi East 9.2 mph - N/A   Clear
10:15 PM 39.2 °F 33.0 °F 30.2 °F 70% 30.08 in 10.0 mi East 9.2 mph - N/A   Partly Cloudy
10:35 PM 39.2 °F 34.2 °F 30.2 °F 70% 30.09 in 10.0 mi ENE 6.9 mph - N/A   Scattered Clouds
10:55 PM 39.2 °F 33.0 °F 30.2 °F 70% 30.08 in 10.0 mi ENE 9.2 mph - N/A   Mostly Cloudy
11:15 PM 39.2 °F 33.0 °F 30.2 °F 70% 30.08 in 10.0 mi East 9.2 mph - N/A   Overcast
11:35 PM 41.0 °F 35.8 °F 32.0 °F 70% 30.08 in 10.0 mi ENE 8.1 mph - N/A   Overcast
11:55 PM 39.2 °F 33.6 °F 32.0 °F 75% 30.08 in 10.0 mi ENE 8.1 mph - N/A   Overcast